Regional Weather Roundup
Issued by NWS Columbia, SC

Home | Current Version | Previous Version | Text Only | Print | Product List | Glossary On
Versions: 1 2 3 4 5 6 7 8 9 10 11 12 13 14 15 16 17 18 19 20 21 22 23 24 25 26 27 28 29 30 31 32 33 34 35 36 37 38 39 40 41 42 43 44 45 46 47 48 49 50
000
ASUS42 KCAE 200510
RWRCAE
REGIONAL WEATHER ROUNDUP
NATIONAL WEATHER SERVICE COLUMBIA SC
1200 AM EST MON FEB 20 2017

NOTE: "FAIR" INDICATES FEW OR NO CLOUDS BELOW 12,000 FEET WITH NO
SIGNIFICANT WEATHER AND/OR OBSTRUCTIONS TO VISIBILITY.

NOT ALL STATIONS ARE QUALITY CONTROLLED BY THE NATIONAL
WEATHER SERVICE. USE DATA WITH CAUTION...ESPECIALLY
DEWPOINT OBSERVATIONS.

SCZ001>056-GAZ040-063>065-077-200600-
...UPSTATE SOUTH CAROLINA...

CITY           SKY/WX    TMP DP  RH WIND       PRES   REMARKS
ANDERSON       CLEAR     50  43  77 N3        30.13R
LIBERTY        CLEAR     44  41  86 CALM      30.13R
SPARTANBURG    CLEAR     52  41  66 N3        30.12R
CLEMSON        CLEAR     55  46  71 CALM      30.15R
GREENVILLE     CLEAR     58  41  53 W3        30.14R
GREENWOOD      CLEAR     48  43  82 CALM      30.14R
GREER          CLEAR     54  41  61 NW3       30.12R
ROCK HILL      CLEAR     51  41  68 CALM      30.11R
CHESTER        CLEAR     52  39  62 CALM      30.12R
LAURENS        CLEAR     46  43  87 N3        30.12R


...CENTRAL SOUTH CAROLINA...

CITY           SKY/WX    TMP DP  RH WIND       PRES   REMARKS
COLUMBIA APT   CLEAR     49  45  86 CALM      30.09S
COLUMBIA OWENS CLEAR     51  47  86 CALM      30.10F
MCENTIRE ANGB  CLEAR     46  45  97 CALM      30.09S
ORANGEBURG     CLEAR     51  48  89 CALM      30.09S
SUMTER SHAW    CLEAR     51  46  84 CALM      30.07R
AIKEN          FAIR      46  45  93 CALM      30.14R
BARNWELL       FAIR      50  48  93 CALM      30.11R
MANNING        FAIR      46  45  93 MISG      30.10R
CAMDEN         FAIR      48  45  87 CALM      30.10S
LANCASTER      CLEAR     48  48 100 S3        30.11S
WINNSBORO      CLEAR     54  46  76 N3        30.10S


...EASTERN AND COASTAL SOUTH CAROLINA...

CITY           SKY/WX    TMP DP  RH WIND       PRES   REMARKS
MYRTLE BEACH   CLEAR     52  47  83 N5        30.08S
N MYRTLE BCH   CLEAR     51  48  89 NW3       30.07S
CONWAY         FAIR      46  45  93 CALM      30.08S
MARION         FAIR      48  46  93 NW3       30.08F
HARTSVILLE     FAIR      54  43  66 NW3       30.09R
FLORENCE       CLEAR     50  46  86 W5        30.08F
DARLINGTON     CLEAR     53  46  77 N7        30.09F
CHARLESTON APT CLEAR     53  46  77 NW3       30.09R
MOUNT PLEASANT LGT RAIN  52  48  87 CALM      30.09R
WALTERBORO     CLEAR     48  45  87 CALM      30.10S
BEAUFORT       CLEAR     53  51  93 CALM      30.09S


...EASTERN GEORGIA...

CITY           SKY/WX    TMP DP  RH WIND       PRES   REMARKS
AUGUSTA BUSH F CLEAR     50  47  89 CALM      30.11R
AUGUSTA DANIEL CLEAR     58  47  66 CALM      30.12R
THOMSON        CLEAR     49  49 100 CALM      30.18R
WASHINGTON     FAIR      55  52  88 NW3       30.13R
CLAXTON        FAIR     N/A N/A N/A CALM      30.12R
SYLVANIA       CLEAR    N/A N/A N/A CALM      30.11R
STATESBORO     CLEAR     51  51 100 CALM      30.11R
SAVANNAH       CLEAR     54  49  83 CALM      30.10R


...SOUTHERN NORTH CAROLINA...

CITY           SKY/WX    TMP DP  RH WIND       PRES   REMARKS
CHARLOTTE      CLEAR     54  41  61 N5        30.11S
MONROE         CLEAR     55  40  56 N8        30.09S
WADESBORO      PTCLDY    44  41  91 CALM      30.10S
ROCKINGHAM     CLEAR     55  45  69 CALM      30.09S
RUTHERFORDTON  CLEAR     49  40  72 CALM      30.13S
ASHEVILLE      CLEAR     47  39  74 CALM      30.16F

$$



USA.gov is the U.S. government's official web portal to all federal, state and local government web resources and services.